This is the latest recevied weather packets stored in our database for station/object WB5LJZ-5. If no packets are shown the sender has not sent any weather packets the latest 10 day(s).
| Time | Temp. | Humidity | Pressure | Rain* | Wind** | Luminosity | Snow |
|---|---|---|---|---|---|---|---|
| 1777728297 | 12.78° C | - | - | 0 mm | 3.13 m/s, 17° | - | - |
| 1777727661 | 12.78° C | - | - | 0 mm | 2.68 m/s, 28° | - | - |
| 1777727025 | 12.22° C | - | - | 0 mm | 3.58 m/s, 3° | - | - |
| 1777726389 | 11.67° C | - | - | 0 mm | 3.58 m/s, 359° | - | - |
| 1777725753 | 11.67° C | - | - | 0 mm | 3.58 m/s, 359° | - | - |
| 1777725117 | 12.22° C | - | - | 0 mm | 2.68 m/s, 330° | - | - |
| 1777724481 | 11.67° C | - | - | 0 mm | 1.34 m/s, 346° | - | - |
| 1777723845 | 10.56° C | - | - | 0 mm | 2.24 m/s, 356° | - | - |
| 1777723209 | 10° C | - | - | 0 mm | 2.24 m/s, 354° | - | - |
| 1777722574 | 10° C | - | - | 0 mm | 1.79 m/s, 357° | - | - |
| 1777721938 | 10° C | - | - | 0 mm | 0.89 m/s, 316° | - | - |
| 1777721302 | 10° C | - | - | 0 mm | 2.68 m/s, 328° | - | - |
| 1777720666 | 10° C | - | - | 0 mm | 1.79 m/s, 326° | - | - |
| 1777720030 | 10° C | - | - | 0 mm | 2.24 m/s, 333° | - | - |
| 1777719394 | 10° C | - | - | 0 mm | 2.68 m/s, 302° | - | - |
| 1777718758 | 10° C | - | - | 0 mm | 2.24 m/s, 325° | - | - |
| 1777718122 | 10° C | - | - | 0 mm | 2.24 m/s, 305° | - | - |
| 1777717486 | 10° C | - | - | 0 mm | 2.68 m/s, 321° | - | - |
| 1777716850 | 10° C | - | - | 0 mm | 2.24 m/s, 285° | - | - |
| 1777716214 | 10° C | - | - | 0 mm | 1.79 m/s, 278° | - | - |
| 1777715579 | 10° C | - | - | 0 mm | 2.24 m/s, 323° | - | - |
| 1777714943 | 10° C | - | - | 0 mm | 2.24 m/s, 294° | - | - |
| 1777714307 | 10° C | - | - | 0 mm | 1.79 m/s, 283° | - | - |
| 1777713672 | 10° C | - | - | 0 mm | 1.79 m/s, 298° | - | - |
| 1777713035 | 10° C | - | - | 0 mm | 0 m/s | - | - |
* Rain latest hour (hover to see other rain measurements)
** Current wind speed in m/s (hover to see current wind gust speed)